Home > Weather > Perm > Past weeks

Flag for Russia Past Weather in Perm, Russia — Yesterday and Last 2 Weeks

Now
57 °F

Clear.


Feels Like: 56 °F
Forecast: 54 / 86 °F
Wind: 6 mph from Southwest

Location: Perm'/Bolshoe Savino

Current Time: May 27, 2016 at 1:35:22 AM

Latest Report: May 27, 2016 at 1:00 AM


Visibility: 10 mi

Pressure: 30.01 "Hg

Humidity: 77%

Dew Point: 50 °F

Location of PermLocation

Past Weather in Perm — Graph

°F

Perm Temperature Yesterday

Maximum temperature yesterday: 82 °F (at 1:00 PM)
Minimum temperature yesterday: 52 °F (at 4:00 AM)
Average temperature yesterday: 69 °F

High & Low Weather Summary for the Past Weeks

 TemperatureHumidityPressure
High82 °F (May 21, 4:00 PM)94% (May 12, 8:30 PM)30.27 "Hg (May 12, 8:30 PM)
Low32 °F (May 14, 5:30 AM)14% (May 16, 5:30 PM)29.50 "Hg (May 12, 6:00 PM)
Average59 °F47%30.06 "Hg
* Reported May 12 12:00 AM — May 27 12:30 AM, Perm, Weather by CustomWeather, © 2016

Note: Actual official high and low records may vary slightly from our data, if they occured in-between our weather recording intervals... More about our weather records

Advertising

Perm Weather History for the Previous 24 Hours

Scroll right to see more
 ConditionsComfort  
Time TempWeatherWind HumidityBarometerVisibility
12:30 AM
Fri, May 27
57 °FClear.6 mph77%30.01 "Hg10 mi
12:00 AM59 °FClear.6 mph77%30.01 "Hg10 mi
11:30 PM
Thu, May 26
61 °FClear.6 mph72%30.01 "Hg10 mi
11:00 PM66 °FClear.1 mph56%29.98 "Hg10 mi
10:30 PM66 °FClear.3 mph56%29.98 "Hg6 mi
10:00 PM72 °FSunny.No wind50%29.98 "Hg10 mi
9:30 PM72 °FSunny.1 mph50%29.98 "Hg10 mi
9:00 PM73 °FSunny.No wind53%29.98 "Hg10 mi
8:30 PM79 °FSunny.No wind32%29.98 "Hg10 mi
8:00 PM79 °FSunny.1 mph32%29.98 "Hg10 mi
7:30 PM81 °FSunny.1 mph32%29.98 "Hg10 mi
7:00 PM81 °FPassing clouds.3 mph30%29.98 "HgN/A
6:30 PM81 °FSunny.1 mph30%29.98 "Hg10 mi
6:00 PM79 °FSunny.3 mph45%29.98 "Hg10 mi
5:30 PM81 °FSunny.3 mph30%29.98 "Hg10 mi
5:00 PM77 °FBroken clouds.3 mph42%29.98 "HgN/A
4:30 PM77 °FPartly sunny.3 mph39%29.98 "HgN/A
4:00 PM77 °FPartly sunny.6 mph36%29.98 "HgN/A
3:30 PM77 °FPartly sunny.6 mph39%29.98 "HgN/A
3:00 PM77 °FPartly sunny.8 mph39%30.01 "HgN/A
2:30 PM81 °FPartly sunny.6 mph30%30.01 "HgN/A
2:00 PM81 °FPartly sunny.6 mph30%30.01 "HgN/A
1:30 PM82 °FSunny.3 mph25%30.01 "Hg10 mi
1:00 PM82 °FSunny.1 mph26%30.01 "Hg10 mi
12:30 PM81 °FPassing clouds.3 mph28%30.01 "HgN/A
12:00 PM81 °FPassing clouds.3 mph30%30.01 "HgN/A
11:30 AM81 °FSunny.1 mph28%30.01 "Hg10 mi
11:00 AM79 °FScattered clouds.1 mph34%30.01 "HgN/A
10:30 AM75 °FPassing clouds.3 mph47%30.01 "HgN/A
10:00 AM75 °FClear.1 mph54%30.01 "Hg6 mi
9:30 AM72 °FSunny.1 mph61%30.01 "Hg10 mi
9:00 AM68 °FClear.1 mph69%30.01 "Hg6 mi
8:30 AM64 °FClear.1 mph73%30.01 "Hg6 mi
8:00 AM64 °FSunny.1 mph73%30.01 "Hg10 mi
7:30 AM61 °FSunny.3 mph83%30.01 "Hg10 mi
7:00 AM59 °FSunny.1 mph82%30.01 "Hg10 mi
6:30 AM55 °FSunny.1 mph88%30.01 "Hg10 mi
6:00 AM54 °FSunny.1 mph88%30.01 "Hg10 mi
5:30 AM52 °FSunny.1 mph88%30.01 "Hg10 mi
5:00 AM52 °FClear.1 mph88%30.01 "Hg10 mi
4:30 AM52 °FClear.6 mph88%30.01 "Hg10 mi
4:00 AM52 °FClear.No wind88%30.01 "Hg10 mi
3:30 AM54 °FClear.3 mph88%30.01 "Hg10 mi
3:00 AM54 °FClear.1 mph88%30.01 "Hg10 mi
2:30 AM54 °FClear.3 mph88%30.01 "Hg10 mi
2:00 AM57 °FClear.3 mph77%30.01 "Hg10 mi
1:00 AM59 °FClear.6 mph72%29.98 "Hg10 mi
Weather by CustomWeather, © 2016

See weather overviewHow to use our weather pages